[[{"header":{"parameterUnit":"m.s-1","parameterCategory":1,"la1":30.2991,"la2":30.254,"lo1":-89.0895,"lo2":-89.0444,"dx":0.0017,"dy":0.0017,"nx":28,"ny":28,"refTime":"2022-12-02T09:00:00:Z","depth":0,"parameterNumber":2,"parameterNumberName":"U-component_of_WINDS"},"data":[0,0,0,0,0,0,0,0,0,0,0,0,0,0,0,0,0,0,0,0,0,0,0,0,0,0,0,0,0,0,0,0,0,0,0,0,0,0,0,0,0,0,0,0,0,0,0,0,0,0,0,0,0,0,0,0,0,0,0.1838,0.1838,0,0.1836,0.1836,0.1836,0.1817,0.1816,0.1816,0.1815,0.1814,0.1815,0.1815,0,0,0,0,0,0,0,0,0,0,0,0,0,0.1826,0.1826,0.1838,0.1838,0.1838,0.1836,0.1836,0.1836,0.1817,0.1816,0.1815,0.1815,0.1814,0.1815,0.1815,0,0,0,0,0,0,0,0,0,0,0,0,0,0.1828,0.1826,0.1838,0.1828,0.1827,0.1836,0.1836,0.1836,0.1817,0.1816,0.1815,0.1815,0.1814,0.1815,0.1815,0.1834,0,0,0.1817,0.1818,0,0,0,0,0,0,0,0,0.1828,0.1829,0.1829,0.1829,0.1828,0.1826,0.1831,0.1835,0.1817,0.1821,0.1815,0.1814,0.1819,0.1819,0.182,0.1834,0.1834,0.1817,0.1818,0.1818,0.1818,0,0,0,0,0,0,0,0.1828,0.1829,0.1837,0.1829,0.1828,0.1824,0.1823,0.1832,0.1824,0.182,0.1819,0.1819,0.1818,0.182,0.182,0.1834,0.1817,0.1818,0.1818,0.1819,0.1863,0.1864,0,0,0,0,0,0,0.1829,0.1829,0.1837,0.1837,0.1826,0.1825,0.1824,0.1827,0.1824,0.1823,0.1819,0.1818,0.1819,0.1819,0.182,0.1842,0.1818,0.1819,0.1819,0.1863,0.1864,0.1864,0,0,0,0,0,0,0.1829,0.183,0.1837,0.1833,0.1833,0.1826,0.1829,0.1827,0.1829,0.1823,0.1822,0.1822,0.1818,0.1819,0.1831,0.1842,0.1819,0.182,0.1862,0.1863,0.1864,0.1886,0,0,0,0,0,0,0.1829,0.183,0.1837,0.1833,0.1833,0.1848,0.183,0.1828,0.183,0.1828,0.1826,0.1824,0.1818,0.183,0.1831,0.1842,0.182,0.1861,0.1862,0.1864,0.1885,0.1888,0.1891,0,0,0,0,0,0.1828,0.1843,0.1837,0.1838,0.1842,0.1848,0.1849,0.184,0.1831,0.1838,0.1834,0.1825,0.184,0.1831,0.1833,0.1844,0.186,0.1862,0.1863,0.1883,0.1887,0.1891,0,0,0,0,0,0,0.1849,0.1843,0.1836,0.185,0.185,0.1845,0.1853,0.1845,0.1848,0.1846,0.1836,0.1836,0.1849,0.1848,0.1838,0.1862,0.1848,0.1851,0.1863,0.1867,0.187,0.1871,0.1821,0,0,0,0,0,0.1855,0.1861,0.1855,0.1868,0.1868,0.1861,0.1864,0.1857,0.1857,0.1857,0.1854,0.1854,0.1859,0.1863,0.1867,0.1884,0.1884,0.1893,0.1896,0.1899,0.1901,0.191,0.1915,0.187,0.187,0.187,0,0,0.1868,0.1866,0.187,0.1872,0.1871,0.1878,0.1861,0.1869,0.1873,0.1858,0.1869,0.1867,0.1867,0.1881,0.1887,0.188,0.1913,0.1901,0.1903,0.1904,0.1913,0.1917,0.1921,0.1871,0.1871,0.1871,0,0,0.1896,0.1894,0.1905,0.1904,0.1903,0.1898,0.19,0.1897,0.1895,0.1905,0.1894,0.19,0.1909,0.1909,0.191,0.1938,0.1929,0.1939,0.1957,0.1967,0.197,0.1973,0.1984,0.1987,0.1942,0.1942,0.1942,0,0.1912,0.1921,0.1911,0.192,0.1921,0.1907,0.1918,0.1918,0.1919,0.1921,0.1913,0.1923,0.1922,0.1937,0.1944,0.1945,0.1948,0.194,0.197,0.1973,0.1976,0.1986,0.199,0.1943,0.1943,0.1943,0.1943,0,0.1942,0.1948,0.1957,0.1958,0.196,0.197,0.1962,0.1966,0.1959,0.1956,0.1967,0.1965,0.1969,0.1971,0.1965,0.1986,0.1981,0.1972,0.1958,0.1982,0.1991,0.1995,0.1945,0.1944,0.1944,0.1944,0,0,0.1982,0.1977,0.1981,0.1981,0.1979,0.1984,0.1993,0.1997,0.2,0.2001,0.2009,0.2017,0.2008,0.201,0.2003,0.2012,0.2034,0.2001,0.2001,0.2008,0.2058,0.2065,0.207,0.2028,0.2029,0.203,0.2058,0,0.2009,0.2024,0.2016,0.2033,0.2039,0.2026,0.2034,0.2034,0.203,0.2035,0.2031,0.2037,0.2025,0.2026,0.2033,0.203,0.2044,0.2028,0.2037,0.2037,0.2038,0.2074,0.2083,0.2109,0.2061,0.2062,0.2062,0,0.2042,0.2044,0.2062,0.2059,0.2061,0.2068,0.2071,0.2076,0.2076,0.2072,0.2074,0.2066,0.2076,0.2061,0.2074,0.2063,0.2067,0.2065,0.2066,0.2067,0.2052,0.2077,0.2118,0.2122,0.2068,0.2067,0.2067,0,0.2071,0.2078,0.209,0.209,0.2087,0.2092,0.2091,0.209,0.2093,0.2095,0.2097,0.2101,0.2103,0.2106,0.2099,0.2089,0.2114,0.2099,0.2112,0.2113,0.2119,0.2119,0.2161,0.2119,0.2119,0.2119,0.2119,0,0.2102,0.2114,0.2103,0.211,0.2122,0.2113,0.2125,0.2123,0.2122,0.2129,0.2117,0.2124,0.2114,0.212,0.2115,0.2127,0.2128,0.2126,0.2125,0.2128,0.2128,0.213,0.2129,0.212,0.212,0.212,0.212,0,0.2137,0.213,0.2142,0.2137,0.2137,0.2146,0.2142,0.2149,0.2145,0.2154,0.2155,0.2148,0.2155,0.2148,0.2154,0.2151,0.2167,0.2163,0.2168,0.2167,0.2181,0.218,0.2226,0.2232,0.2187,0.2187,0.2187,0,0.2158,0.2166,0.2163,0.2166,0.2166,0.2172,0.2174,0.2165,0.2169,0.2169,0.2176,0.2181,0.2185,0.2196,0.2192,0.2197,0.2193,0.2209,0.2193,0.2196,0.2194,0.2194,0.2195,0.2212,0.2213,0.2213,0.2213,0,0.2195,0.2192,0.2196,0.2199,0.2203,0.2205,0.2206,0.221,0.22,0.2204,0.2211,0.2214,0.222,0.2225,0.2229,0.2228,0.222,0.2218,0.2222,0.2225,0.2228,0.2227,0.2177,0.2217,0.2217,0.2217,0.2216,0.2216,0.2224,0.2231,0.223,0.2235,0.2235,0.2237,0.2243,0.2239,0.2244,0.2248,0.2243,0.2251,0.225,0.2254,0.2254,0.2261,0.2254,0.2259,0.2261,0.2262,0.2265,0.2226,0.2262,0.2261,0.2261,0.2261,0.2261,0,0.2262,0.2261,0.2265,0.2268,0.2272,0.2263,0.2264,0.2268,0.2275,0.2275,0.2279,0.2287,0.2292,0.2289,0.2294,0.23,0.2296,0.2301,0.2301,0.2301,0.227,0.2267,0.2304,0.2304,0.2304,0.2304,0.2304,0.2304,0.2282,0.2294,0.229,0.2302,0.23,0.2308,0.2309,0.2311,0.2311,0.232,0.2324,0.2322,0.2321,0.2326,0.2331,0.2329,0.2332,0.2339,0.2337,0.2308,0.2304,0.2299,0.2296,0.234,0.234,0.2368,0.2368,0.2368]},{"header":{"parameterUnit":"m.s-1","parameterCategory":1,"la1":30.2991,"la2":30.254,"lo1":-89.0895,"lo2":-89.0444,"dx":0.0017,"dy":0.0017,"nx":28,"ny":28,"refTime":"2022-12-02T09:00:00:Z","depth":0,"parameterNumber":3,"parameterNumberName":"V-component_of_WINDS"},"data":[0,0,0,0,0,0,0,0,0,0,0,0,0,0,0,0,0,0,0,0,0,0,0,0,0,0,0,0,0,0,0,0,0,0,0,0,0,0,0,0,0,0,0,0,0,0,0,0,0,0,0,0,0,0,0,0,0,0,1.512,1.5121,0,1.5177,1.5178,1.5179,1.5162,1.5161,1.516,1.5158,1.5215,1.5218,1.522,0,0,0,0,0,0,0,0,0,0,0,0,0,1.4994,1.4996,1.512,1.5121,1.5122,1.5177,1.5178,1.5179,1.5162,1.5161,1.5159,1.5158,1.5214,1.5217,1.5221,0,0,0,0,0,0,0,0,0,0,0,0,0,1.505,1.4997,1.512,1.512,1.5121,1.5177,1.5178,1.5179,1.5162,1.5161,1.5159,1.5157,1.5213,1.5217,1.5221,1.528,0,0,1.5233,1.5235,0,0,0,0,0,0,0,0,1.5046,1.5054,1.5119,1.512,1.5121,1.5161,1.5154,1.5213,1.5163,1.5147,1.5158,1.5156,1.5198,1.5203,1.5218,1.5283,1.5285,1.5233,1.5236,1.5237,1.5238,0,0,0,0,0,0,0,1.5043,1.5052,1.5143,1.512,1.5121,1.5116,1.5122,1.5165,1.5182,1.5148,1.5147,1.5154,1.5198,1.5214,1.5219,1.5286,1.5233,1.5237,1.5239,1.5241,1.5401,1.5403,0,0,0,0,0,0,1.5039,1.5049,1.5141,1.5144,1.5079,1.512,1.5127,1.515,1.5181,1.5184,1.5155,1.5153,1.5208,1.5215,1.5221,1.5292,1.5237,1.5241,1.5243,1.5399,1.5402,1.5404,0,0,0,0,0,0,1.5036,1.5047,1.5139,1.5096,1.5108,1.5124,1.515,1.5152,1.5168,1.5187,1.5189,1.5169,1.5207,1.5216,1.5266,1.5294,1.5243,1.5246,1.5397,1.54,1.5403,1.5435,0,0,0,0,0,0,1.5032,1.5046,1.507,1.5097,1.511,1.5183,1.5152,1.5154,1.5175,1.5172,1.52,1.5203,1.5207,1.526,1.5269,1.5298,1.5249,1.5395,1.5398,1.5402,1.5432,1.5439,1.5445,0,0,0,0,0,1.5028,1.5077,1.5071,1.5082,1.514,1.5185,1.5192,1.5196,1.5177,1.52,1.5212,1.5202,1.5289,1.5265,1.5276,1.5306,1.5393,1.5397,1.5401,1.5429,1.5438,1.5445,0,0,0,0,0,0,1.5053,1.508,1.5075,1.5134,1.5157,1.5182,1.5212,1.5205,1.5234,1.5231,1.5233,1.524,1.5291,1.5303,1.5276,1.5365,1.5338,1.5345,1.5355,1.5364,1.537,1.5367,1.5253,0,0,0,0,0,1.5065,1.51,1.5122,1.5172,1.5184,1.5196,1.5216,1.5216,1.524,1.525,1.5266,1.5289,1.5321,1.5343,1.5374,1.5433,1.5438,1.5459,1.5465,1.5471,1.5477,1.5508,1.5517,1.5418,1.5418,1.5418,0,0,1.5091,1.511,1.5132,1.5177,1.5196,1.5231,1.5204,1.5243,1.5269,1.5256,1.5304,1.5316,1.5342,1.5397,1.5421,1.5409,1.5505,1.5476,1.5481,1.5484,1.5514,1.5523,1.5531,1.5421,1.542,1.542,0,0,1.5156,1.5174,1.5218,1.5236,1.5264,1.5272,1.5282,1.5307,1.5315,1.5363,1.5354,1.5384,1.544,1.5459,1.5475,1.5545,1.5537,1.5555,1.559,1.5621,1.5628,1.5635,1.566,1.5669,1.5561,1.5561,1.5561,0,1.5185,1.5239,1.5241,1.5281,1.53,1.5289,1.5332,1.535,1.5386,1.54,1.5384,1.5454,1.547,1.5529,1.5546,1.5559,1.5571,1.5553,1.5627,1.5634,1.5641,1.5664,1.5674,1.5563,1.5563,1.5562,1.5562,0,1.5272,1.531,1.5341,1.5377,1.5399,1.5441,1.5448,1.5471,1.5468,1.5477,1.5525,1.5544,1.5579,1.5592,1.559,1.565,1.5641,1.5626,1.56,1.5652,1.5675,1.5684,1.5566,1.5565,1.5564,1.5564,0,0,1.5358,1.5392,1.5404,1.5419,1.5448,1.5476,1.5516,1.555,1.5569,1.5593,1.5626,1.5673,1.5659,1.5678,1.5678,1.5704,1.5758,1.5686,1.5687,1.5699,1.5824,1.5835,1.5846,1.5751,1.5753,1.5755,1.5822,0,1.5426,1.5497,1.5499,1.5564,1.5597,1.5586,1.562,1.5641,1.5649,1.5678,1.5686,1.5719,1.5699,1.571,1.5736,1.5746,1.5783,1.5741,1.5782,1.5783,1.5777,1.5857,1.587,1.5933,1.583,1.5832,1.5833,0,1.5516,1.5544,1.5612,1.5634,1.5648,1.5679,1.5709,1.5737,1.576,1.5763,1.5784,1.5779,1.5818,1.5789,1.5842,1.5814,1.583,1.5837,1.5839,1.5845,1.5812,1.5865,1.5953,1.5963,1.5847,1.5846,1.5845,0,1.5572,1.5625,1.5673,1.5686,1.5714,1.5736,1.5748,1.5768,1.5788,1.5813,1.5826,1.5856,1.5872,1.5894,1.5897,1.5876,1.5951,1.5922,1.5955,1.5955,1.5973,1.5972,1.6065,1.5981,1.5981,1.5981,1.5981,0,1.5649,1.5691,1.5698,1.5728,1.5774,1.5774,1.582,1.583,1.5848,1.5878,1.5869,1.5897,1.5899,1.5928,1.593,1.5973,1.598,1.5984,1.5985,1.5986,1.5985,1.5998,1.5994,1.5983,1.5983,1.5982,1.5982,0,1.572,1.5727,1.5778,1.5799,1.5805,1.5838,1.5855,1.5883,1.5889,1.5927,1.5936,1.5946,1.5978,1.5983,1.6022,1.6023,1.6075,1.607,1.6068,1.6068,1.61,1.6098,1.6206,1.622,1.6126,1.6127,1.6128,0,1.577,1.5802,1.5826,1.5846,1.5859,1.5891,1.591,1.5911,1.5932,1.5958,1.5982,1.6014,1.604,1.6093,1.6103,1.6132,1.6128,1.6164,1.6132,1.6132,1.6129,1.6128,1.6131,1.617,1.6171,1.6172,1.6173,0,1.5857,1.5858,1.5887,1.5917,1.594,1.5964,1.5986,1.6002,1.6005,1.6028,1.6062,1.6082,1.6121,1.6152,1.6181,1.6192,1.6183,1.6182,1.6191,1.6194,1.6191,1.6193,1.6086,1.618,1.618,1.6179,1.6179,1.6178,1.5919,1.5947,1.5968,1.6,1.6016,1.6036,1.6063,1.6072,1.61,1.6132,1.613,1.6167,1.6186,1.6223,1.6236,1.6264,1.6252,1.6266,1.6269,1.6273,1.6276,1.6186,1.6269,1.6269,1.6269,1.6268,1.6268,0,1.6006,1.6019,1.6048,1.6079,1.6104,1.6092,1.6115,1.6137,1.617,1.6188,1.6214,1.6251,1.6281,1.6293,1.6322,1.6342,1.6338,1.6349,1.6349,1.6351,1.6285,1.6274,1.6352,1.6352,1.6352,1.6352,1.6352,1.6352,1.6055,1.6101,1.6104,1.6157,1.6169,1.6205,1.6219,1.6237,1.6252,1.6295,1.632,1.6327,1.6342,1.6372,1.6398,1.6401,1.6412,1.6425,1.6426,1.6364,1.6356,1.6348,1.6338,1.6428,1.6428,1.649,1.649,1.6491]}]]